Flag for Norway Weather past 2 weeks in Hamar, Norway

Now
66 °F

Mild.


Feels Like: 66 °F
Forecast: 62 / 85 °F
Wind: 1 mph from South

Location: Haugedalshogda

Current Time: Jul 24, 2014 at 10:31:12 PM

Latest Report: Jul 24, 2014 at 9:00 PM


Visibility: N/A

Pressure: 30.25 "Hg

Humidity: 85%

Dew point: 61 °F

Location of HamarLocation

Historic Weather in Hamar — Graph

°F

Hamar temperature yesterday

Maximum temperature yesterday: 88 °F (at 5:00 PM)
Minimum temperature yesterday: 50 °F (at 5:00 AM)
Average temperature yesterday: 70 °F

Past Weeks' High & Low Weather Summary

 TemperatureHumidityPressure
High88 °F (Jul 23, 5:00 PM)94% (Jul 10, 6:00 AM)30.39 "Hg (Jul 10, 6:00 AM)
Low44 °F (Jul 21, 4:00 AM)23% (Jul 13, 12:00 PM)29.70 "Hg (Jul 14, 4:00 PM)
Average66 °F67%30.06 "Hg
* Reported Jul 9 9:00 PM — Jul 24 9:00 PM, Hamar, Weather by CustomWeather, © 2014

Note: Actual official high and low records may vary slightly from our data, if they occured in-between our weather recording intervals... More about our weather records

Advertising

Hamar weather history for previous 24 hours

 ConditionsComfort  
Time TempWeatherWind HumidityBarometerVisibility
9:00 PM
Jul 24
66 °FMild.1 mph85%30.25 "HgN/A
8:00 PM72 °FMild.5 mph61%30.24 "HgN/A
7:00 PM76 °FMild.3 mph50%30.19 "HgN/A
6:00 PM79 °FWarm.5 mph45%30.17 "HgN/A
5:00 PM86 °FPleasantly warm.3 mph31%30.15 "HgN/A
4:00 PM78 °FWarm.2 mph47%30.18 "HgN/A
3:00 PM79 °FWarm.6 mph44%30.17 "HgN/A
2:00 PM86 °FPleasantly warm.2 mph23%30.16 "HgN/A
1:00 PM85 °FPleasantly warm.3 mph34%30.18 "HgN/A
12:00 PM84 °FPleasantly warm.1 mph32%30.21 "HgN/A
11:00 AM80 °FWarm.1 mph45%30.22 "HgN/A
10:00 AM73 °FMild.1 mph62%30.24 "HgN/A
9:00 AM69 °FMild.1 mph65%30.27 "HgN/A
8:00 AM65 °FMild.1 mph74%30.28 "HgN/A
7:00 AM65 °FMild.1 mph80%30.28 "HgN/A
6:00 AM62 °FCool.1 mph89%30.29 "HgN/A
5:00 AM60 °FCool.1 mph89%30.29 "HgN/A
4:00 AM60 °FCool.1 mph89%30.29 "HgN/A
3:00 AM61 °FCool.1 mph87%30.29 "HgN/A
2:00 AM63 °FMild.1 mph83%30.28 "HgN/A
1:00 AM63 °FMild.No wind83%30.29 "HgN/A
12:00 AM66 °FMild.1 mph78%30.28 "HgN/A
11:00 PM
Jul 23
65 °FMild.1 mph78%30.27 "HgN/A
10:00 PM72 °FMild.1 mph61%30.25 "HgN/A
Weather by CustomWeather, © 2014

See weather overviewHow to use our weather pages